• In Austria
  • List of Countries
  • For 7 days
  • Water Temperature
  • Satellite Maps
  • Weather Map
  • News
  • Weather Widgets
  • user-avatar
    Login

    Hourly Weather Kitzbuhel

    Today, 23 May, Wednesday

    Time Temperature Precipitation Wind Pressure Humidity
    00:00 +9°C° 0 mm 2 mps 675 mmHg 88%
    01:00 +9°C° 0 mm 2 mps 676 mmHg 88%
    02:00 +9°C° 0 mm 2 mps 676 mmHg 88%
    03:00 +9°C° 0 mm 1 mps 676 mmHg 88%
    04:00 +9°C° 0 mm 1 mps 676 mmHg 88%
    05:00 +11°C° 0 mm 1 mps 676 mmHg 83%
    06:00 +13°C° 0 mm 1 mps 677 mmHg 78%
    07:00 +14°C° 0 mm 0 mps 677 mmHg 73%
    08:00 +16°C° 0 mm 1 mps 678 mmHg 66%
    09:00 +19°C° 0 mm 1 mps 678 mmHg 60%
    10:00 +21°C° 0 mm 1 mps 679 mmHg 53%
    11:00 +21°C° 0.3 mm 1 mps 679 mmHg 55%
    12:00 +22°C° 0.3 mm 1 mps 678 mmHg 57%
    13:00 +21°C° 0.3 mm 2 mps 678 mmHg 59%
    14:00 +20°C° 1.1 mm 2 mps 678 mmHg 63%
    15:00 +20°C° 1.1 mm 2 mps 678 mmHg 68%
    16:00 +20°C° 1.1 mm 2 mps 678 mmHg 72%
    17:00 +20°C° 1.1 mm 1 mps 678 mmHg 77%
    18:00 +19°C° 1.1 mm 1 mps 678 mmHg 82%
    19:00 +16°C° 1.1 mm 1 mps 678 mmHg 87%
    20:00 +15°C° 0.8 mm 1 mps 678 mmHg 89%
    21:00 +14°C° 0.8 mm 1 mps 678 mmHg 91%
    22:00 +13°C° 0.8 mm 1 mps 678 mmHg 93%
    23:00 +13°C° 0.3 mm 1 mps 678 mmHg 94%

    Tomorrow, 24 May, Thursday

    Time Temperature Precipitation Wind Pressure Humidity
    00:00 +12°C° 0.3 mm 1 mps 678 mmHg 94%
    01:00 +11°C° 0.3 mm 1 mps 678 mmHg 94%
    02:00 +11°C° 0.1 mm 1 mps 678 mmHg 94%
    03:00 +11°C° 0.1 mm 1 mps 678 mmHg 93%
    04:00 +11°C° 0.1 mm 1 mps 678 mmHg 93%
    05:00 +12°C° 0.2 mm 1 mps 678 mmHg 89%
    06:00 +14°C° 0.2 mm 1 mps 679 mmHg 86%
    07:00 +14°C° 0.2 mm 0 mps 679 mmHg 82%
    08:00 +18°C° 0.1 mm 1 mps 679 mmHg 77%
    09:00 +19°C° 0.1 mm 1 mps 680 mmHg 72%
    10:00 +20°C° 0.1 mm 1 mps 680 mmHg 67%
    11:00 +21°C° 0.9 mm 1 mps 680 mmHg 68%
    12:00 +21°C° 0.9 mm 1 mps 679 mmHg 69%
    13:00 +21°C° 0.9 mm 1 mps 679 mmHg 70%
    14:00 +21°C° 1.4 mm 1 mps 679 mmHg 74%
    15:00 +20°C° 1.4 mm 1 mps 679 mmHg 78%
    16:00 +20°C° 1.4 mm 1 mps 679 mmHg 82%
    17:00 +19°C° 1 mm 1 mps 679 mmHg 86%
    18:00 +18°C° 1 mm 1 mps 679 mmHg 89%
    19:00 +15°C° 1 mm 0 mps 679 mmHg 93%
    20:00 +15°C° 0.4 mm 1 mps 679 mmHg 94%
    21:00 +14°C° 0.4 mm 1 mps 679 mmHg 95%
    22:00 +14°C° 0.4 mm 1 mps 679 mmHg 96%
    23:00 +13°C° 0.2 mm 1 mps 679 mmHg 96%

    Day after tomorrow, 25 May, Friday

    Time Temperature Precipitation Wind Pressure Humidity
    00:00 +13°C° 0.2 mm 1 mps 679 mmHg 95%
    01:00 +12°C° 0.2 mm 1 mps 679 mmHg 95%
    02:00 +12°C° 0.1 mm 1 mps 679 mmHg 95%
    03:00 +12°C° 0.1 mm 1 mps 679 mmHg 95%
    04:00 +11°C° 0.1 mm 1 mps 679 mmHg 94%
    05:00 +13°C° 0.1 mm 1 mps 679 mmHg 91%
    06:00 +14°C° 0.1 mm 1 mps 679 mmHg 88%
    07:00 +16°C° 0.1 mm 1 mps 680 mmHg 85%
    08:00 +19°C° 0.1 mm 1 mps 680 mmHg 76%
    09:00 +21°C° 0.1 mm 1 mps 680 mmHg 66%
    10:00 +23°C° 0.1 mm 1 mps 681 mmHg 57%
    11:00 +23°C° 0.3 mm 1 mps 681 mmHg 55%
    12:00 +23°C° 0.3 mm 1 mps 680 mmHg 54%
    13:00 +24°C° 0.3 mm 2 mps 680 mmHg 53%
    14:00 +23°C° 0.3 mm 2 mps 680 mmHg 56%
    15:00 +23°C° 0.3 mm 2 mps 680 mmHg 59%
    16:00 +23°C° 0.3 mm 2 mps 680 mmHg 62%
    17:00 +20°C° 0.5 mm 2 mps 680 mmHg 71%
    18:00 +20°C° 0.5 mm 1 mps 680 mmHg 80%
    19:00 +18°C° 0.5 mm 1 mps 679 mmHg 89%
    20:00 +16°C° 0.2 mm 1 mps 680 mmHg 90%
    21:00 +15°C° 0.2 mm 1 mps 680 mmHg 91%
    22:00 +13°C° 0.2 mm 1 mps 680 mmHg 92%
    23:00 +13°C° 0 mm 1 mps 680 mmHg 92%

    26 May, Saturday

    Time Temperature Precipitation Wind Pressure Humidity
    00:00 +12°C° 0 mm 1 mps 680 mmHg 91%
    01:00 +12°C° 0 mm 1 mps 679 mmHg 91%
    02:00 +12°C° 0 mm 1 mps 679 mmHg 90%
    03:00 +11°C° 0 mm 1 mps 679 mmHg 90%
    04:00 +11°C° 0 mm 1 mps 679 mmHg 89%
    05:00 +13°C° 0 mm 1 mps 680 mmHg 85%
    06:00 +15°C° 0 mm 1 mps 680 mmHg 81%
    07:00 +18°C° 0 mm 1 mps 681 mmHg 76%
    08:00 +20°C° 0 mm 1 mps 681 mmHg 66%
    09:00 +22°C° 0 mm 1 mps 682 mmHg 56%
    10:00 +25°C° 0 mm 1 mps 682 mmHg 46%
    11:00 +25°C° 0 mm 1 mps 682 mmHg 44%
    12:00 +26°C° 0 mm 1 mps 682 mmHg 42%
    13:00 +27°C° 0 mm 1 mps 682 mmHg 40%
    14:00 +26°C° 0.1 mm 2 mps 682 mmHg 43%
    15:00 +26°C° 0.1 mm 2 mps 682 mmHg 46%
    16:00 +26°C° 0.1 mm 2 mps 681 mmHg 49%
    17:00 +24°C° 0.4 mm 1 mps 681 mmHg 60%
    18:00 +22°C° 0.4 mm 1 mps 681 mmHg 72%
    19:00 +20°C° 0.4 mm 1 mps 681 mmHg 83%
    20:00 +19°C° 0.1 mm 1 mps 681 mmHg 85%
    21:00 +16°C° 0.1 mm 1 mps 681 mmHg 88%
    22:00 +15°C° 0.1 mm 1 mps 681 mmHg 90%
    23:00 +14°C° 0 mm 1 mps 681 mmHg 90%

    27 May, Sunday

    Time Temperature Precipitation Wind Pressure Humidity
    00:00 +14°C° 0 mm 1 mps 681 mmHg 89%
    01:00 +14°C° 0 mm 1 mps 681 mmHg 89%
    02:00 +13°C° 0 mm 1 mps 680 mmHg 88%
    03:00 +13°C° 0 mm 1 mps 680 mmHg 88%
    04:00 +13°C° 0 mm 1 mps 680 mmHg 87%
    05:00 +15°C° 0 mm 1 mps 680 mmHg 82%
    06:00 +18°C° 0 mm 1 mps 681 mmHg 77%
    07:00 +19°C° 0 mm 1 mps 681 mmHg 72%
    08:00 +22°C° 0 mm 1 mps 682 mmHg 62%
    09:00 +24°C° 0 mm 1 mps 682 mmHg 52%
    10:00 +26°C° 0 mm 1 mps 682 mmHg 42%
    11:00 +27°C° 0 mm 1 mps 682 mmHg 40%
    12:00 +28°C° 0 mm 1 mps 682 mmHg 38%
    13:00 +28°C° 0 mm 1 mps 682 mmHg 37%
    14:00 +28°C° 0 mm 1 mps 682 mmHg 40%
    15:00 +27°C° 0 mm 2 mps 681 mmHg 44%
    16:00 +27°C° 0 mm 2 mps 681 mmHg 47%
    17:00 +25°C° 0.4 mm 1 mps 681 mmHg 59%
    18:00 +23°C° 0.4 mm 1 mps 681 mmHg 70%
    19:00 +19°C° 0.4 mm 0 mps 680 mmHg 82%
    20:00 +20°C° 0.1 mm 1 mps 680 mmHg 83%
    21:00 +19°C° 0.1 mm 1 mps 680 mmHg 84%
    22:00 +18°C° 0.1 mm 1 mps 681 mmHg 85%
    23:00 +16°C° 0 mm 1 mps 680 mmHg 85%

    28 May, Monday

    Time Temperature Precipitation Wind Pressure Humidity
    00:00 +16°C° 0 mm 1 mps 680 mmHg 85%
    01:00 +16°C° 0 mm 1 mps 680 mmHg 84%
    02:00 +15°C° 0 mm 1 mps 680 mmHg 84%
    03:00 +15°C° 0 mm 1 mps 679 mmHg 84%
    04:00 +14°C° 0 mm 1 mps 679 mmHg 83%
    05:00 +16°C° 0 mm 1 mps 680 mmHg 78%
    06:00 +19°C° 0 mm 1 mps 680 mmHg 74%
    07:00 +21°C° 0 mm 1 mps 681 mmHg 69%
    08:00 +23°C° 0 mm 1 mps 681 mmHg 61%
    09:00 +25°C° 0 mm 1 mps 681 mmHg 53%
    10:00 +27°C° 0 mm 1 mps 682 mmHg 45%
    11:00 +27°C° 0.1 mm 1 mps 682 mmHg 44%
    12:00 +28°C° 0.1 mm 2 mps 681 mmHg 43%
    13:00 +28°C° 0.1 mm 2 mps 681 mmHg 43%
    14:00 +28°C° 0.4 mm 2 mps 681 mmHg 45%
    15:00 +28°C° 0.4 mm 2 mps 680 mmHg 48%
    16:00 +27°C° 0.4 mm 2 mps 680 mmHg 50%
    17:00 +26°C° 0.6 mm 2 mps 680 mmHg 60%
    18:00 +24°C° 0.6 mm 2 mps 679 mmHg 69%
    19:00 +22°C° 0.6 mm 1 mps 679 mmHg 79%
    20:00 +21°C° 0.1 mm 1 mps 679 mmHg 81%
    21:00 +19°C° 0.1 mm 2 mps 679 mmHg 83%
    22:00 +17°C° 0.1 mm 2 mps 679 mmHg 86%
    23:00 +17°C° 0 mm 2 mps 679 mmHg 86%
    Show more